This is the latest recevied weather packets stored in our database for station/object OK1CBR-13. If no packets are shown the sender has not sent any weather packets the latest 10 day(s).
| Time | Temp. | Humidity | Pressure | Rain* | Wind** | Luminosity | Snow |
|---|---|---|---|---|---|---|---|
| 1777637851 | 21.67° C | 30% | 1027.9 hPa | - | - | - | - |
| 1777637252 | 21.11° C | 31% | 1028.1 hPa | - | - | - | - |
| 1777636652 | 21.11° C | 31% | 1028.1 hPa | - | - | - | - |
| 1777636052 | 20.56° C | 31% | 1028.3 hPa | - | - | - | - |
| 1777635452 | 20.56° C | 31% | 1028.4 hPa | - | - | - | - |
| 1777634852 | 21.11° C | 31% | 1028.4 hPa | - | - | - | - |
| 1777634252 | 21.11° C | 32% | 1028.5 hPa | - | - | - | - |
| 1777633652 | 20° C | 33% | 1028.8 hPa | - | - | - | - |
| 1777633052 | 20° C | 33% | 1028.9 hPa | - | - | - | - |
| 1777632452 | 20° C | 34% | 1029 hPa | - | - | - | - |
| 1777631852 | 20° C | 34% | 1029 hPa | - | - | - | - |
| 1777631252 | 19.44° C | 34% | 1029.2 hPa | - | - | - | - |
| 1777630652 | 19.44° C | 35% | 1029.3 hPa | - | - | - | - |
| 1777630052 | 18.89° C | 35% | 1029.3 hPa | - | - | - | - |
| 1777629452 | 18.33° C | 37% | 1029.4 hPa | - | - | - | - |
| 1777628852 | 17.78° C | 38% | 1029.5 hPa | - | - | - | - |
| 1777628252 | 17.78° C | 40% | 1029.6 hPa | - | - | - | - |
| 1777627652 | 17.22° C | 40% | 1029.6 hPa | - | - | - | - |
| 1777627052 | 17.22° C | 40% | 1029.7 hPa | - | - | - | - |
| 1777626452 | 16.67° C | 41% | 1029.8 hPa | - | - | - | - |
| 1777625852 | 16.67° C | 42% | 1029.9 hPa | - | - | - | - |
| 1777625252 | 15.56° C | 43% | 1029.9 hPa | - | - | - | - |
| 1777624652 | 15.56° C | 43% | 1029.9 hPa | - | - | - | - |
| 1777624052 | 15° C | 44% | 1029.8 hPa | - | - | - | - |
| 1777623452 | 15° C | 45% | 1030 hPa | - | - | - | - |
* Rain since midnight (hover to see other rain measurements)
** Current wind speed in m/s (hover to see current wind gust speed)